Retour au catalogue

STARLINK-33824

ActifCommunicationsVLEO
NORAD 63766·PAYLOAD·🇺🇸 United States

Lancé Apr 29, 2025 depuis Cape Canaveral Space Force Station

Loading…

Prochains Passages (prochaines 24 heures)

TLE

FraisSource: CelesTrak SupGP

Époque: Sep 14, 2026, 22:55 UTC

1 63766C 25089R   26257.95534722  .00054813  00000+0  19846-2 0  2578
2 63766  43.0017  56.7388 0001794 280.2046 269.7519 15.27563442    14

Suivez STARLINK-33824 en temps réel avec AllMySat

Download on the App Store